sat.trackr.live / text

‹ back to catalog

STARLINK-33786

NORAD 63514 · 2025-071X

PAYLOAD ACTIVE UNKNOWN

§ Identity

Operator
Country
US
Launch date
2025-04-07
Launch site
AFWTR
Launch vehicle
Mass (kg)
RCS (m²)

Purposes: comms

External: N2YO · Heavens-Above · Gunter

§ Orbital elements

Epoch: 2026-09-20T09:47:36.953376Z

Period
93.85 min
Inclination
53.1590°
Eccentricity
0.0000840
Mean motion
15.34405655 rev/d
Perigee alt
462.1 km
Apogee alt
463.3 km
Semi-major
6,840.8 km
B*
4.7876e-4
RAAN
313.9152°
Arg perigee
51.6288°
Mean anomaly
308.4790°
Rev number
8,222

§ Raw data

STARLINK-337861 63514U 25071X   26263.40806659  .00015837  00000+0  47876-3 0  99992 63514  53.1590 313.9152 0000840  51.6288 308.4790 15.34405655 82223

JSON: /api/v1/satellites/63514 · /tle

For live sub-satellite position, see the globe view (requires WebGL).

§ Visibility from observer

Set your observer location to see the next 7 days of passes ≥ 10°. The values pass through the URL so the page stays shareable.

No JS? Fill the form by hand. The geolocation button needs JavaScript.